Weather in Vasilikos

Greece     37°43′08″N   20°58′48″E
temp.,
°C
wind,
m/s
gust,
m/s
humid.,
%
clouds,
%
prec.,
mm/h
press.,
hPa
HPBL,
m
25 february, thu
thu2523:00+16nne22670 0.0 1031139
02:00+15e23630 0.0 1031221
05:00+14ene22640 0.0 1030203
08:00+14ene226113 0.0 1031184
11:00+15nne34590 0.0 1031330
14:00+16nne67650 0.0 1029350
17:00+16n686739 0.0 1029228
20:00+16n7106726 0.0 1029340
26 february, fri
fri2623:00+16nne79700 0.0 1030380
02:00+15ne57650 0.0 1029380
05:00+15nne67660 0.0 1028437
08:00+15ne56660 0.0 1028466
11:00+14ne33620 0.0 1028305
14:00+15nne11580 0.0 1026209
17:00+16nw33590 0.0 1025253
20:00+15nnw34680 0.0 1024229
27 february, sat
sat2723:00+15wnw11680 0.0 102490
02:00+15wsw11680 0.0 1023147
05:00+14nnw11710 0.0 1022154
08:00+14se11730 0.0 1021179
11:00+15ssw11710 0.0 1021195
14:00+16nnw12700 0.0 1019320
17:00+16nw34760 0.0 1019544
20:00+15n23790 0.0 1019279
28 february, sun
sun2823:00+15s12800 0.0 1020241
02:00+14wnw23820 0.0 1019214
05:00+14ene12810 0.0 1018296
08:00+15e12787 0.0 1019533
11:00+14ene228223 0.0 1020345
14:00+15nne447517 0.3 1020402
17:00+15ne777639 0.1 1021479
20:00+14ne888264 0.8 1023450
1 march, mon
mon123:00+12ene567193 1.1 1025798
02:00+12ne347297 1.2 1026553
05:00+12e016291 0.0 1026823
08:00+12nne226164 0.0 1027630
11:00+12se11620 0.0 1028756
14:00+12n33620 0.0 1028695
17:00+14n56550 0.0 1028686
20:00+14nnw45550 0.0 1029785